Regional Weather Roundup
Issued by NWS

Home | Current Version | Previous Version | Graphics & Text | Print | Product List | Glossary On
Versions: 1 2 3 4 5 6 7 8 9 10 11 12 13 14 15 16 17 18 19 20 21 22 23 24 25 26 27 28 29 30 31 32 33 34 35 36 37 38 39 40 41 42 43 44 45 46 47 48 49 50
000
ASUS43 KDMX 070307
RWRIA

WEATHER ROUNDUP FOR IOWA
NATIONAL WEATHER SERVICE DES MOINES IA
1000 PM CDT MON JUL 06 2015

NOTE: "FAIR" INDICATES FEW OR NO CLOUDS BELOW 12,000 FEET WITH NO
SIGNIFICANT WEATHER AND/OR OBSTRUCTIONS TO VISIBILITY.

* - THESE STATIONS ARE NOT NWS STATIONS...THUS NOT UNDER NWS
QUALITY CONTROL.  THEY ALSO DO NOT REPORT WEATHER SUCH
AS PRECIPITATION OR FOG.

IAZ001>003-012>014-020>022-031>034-043>046-070400-
   NORTHWEST IOWA

CITY           SKY/WX    TMP DP  RH WIND       PRES   REMARKS
CARROLL *      CLOUDY    66  63  88 N8        30.01R FOG
CHEROKEE *     MOCLDY    63  55  76 N8        30.08R
DENISON *      CLOUDY    68  63  83 N7        30.01R HAZE
LE MARS *        N/A     64  55  72 N8        30.10R
ORANGE CITY *  CLEAR     61  54  77 N10       30.09R
SHELDON *      PTCLDY    59  59 100 N7        30.07R
SIOUX CITY     CLEAR     67  54  63 N13       30.08R
SPENCER        PTCLDY    63  50  62 N15       30.07R
STORM LAKE *   MOCLDY    63  54  72 N20G28    30.07R
$$

IAZ055>058-069>071-079>083-090>094-070400-
   SOUTHWEST IOWA

CITY           SKY/WX    TMP DP  RH WIND       PRES   REMARKS
ATLANTIC *     PTCLDY    66  61  82 N7        30.00R HAZE
AUDUBON *      CLEAR     66  61  82 N6        30.02R HAZE
CLARINDA *     CLOUDY    70  70 100 N13       29.98R FOG
COUNCIL BLFS * MOCLDY    66  63  88 N5        30.02R FOG
CRESTON *      CLOUDY    68  59  73 N18G25    29.97R HAZE
HARLAN  *      CLOUDY    66  66 100 N6        30.05R FOG
LAMONI         LGT RAIN  70  67  90 N16       29.94R FOG
RED OAK *      CLOUDY    68  61  77 N10       29.99R HAZE
SHENANDOAH *   CLOUDY    70  63  78 N12       29.99R HAZE
$$

IAZ047>049-059>061-072>074-084-070400-
   CENTRAL IOWA

CITY           SKY/WX    TMP DP  RH WIND       PRES   REMARKS
AMES           CLOUDY    66  59  78 N9        29.98R HAZE
ANKENY *       CLOUDY    66  61  82 N7        29.97R HAZE
CHARITON *     CLOUDY    70  63  78 N15G23    29.95R
DES MOINES     CLOUDY    70  59  68 N12       29.96R HAZE
GRINNELL*      CLOUDY    66  59  77 N12       29.95R HAZE
KNOXVILLE *    CLOUDY    70  59  68 N16       29.94R HAZE
MARSHALLTOWN   CLOUDY    65  59  81 N10       29.96R HAZE
PELLA *        CLOUDY    66  66 100 N10G18    29.96R FOG
PERRY *          N/A     66  61  82 N7        29.99R HAZE
$$

IAZ004>006-015-016-023>025-035-036-070400-
   NORTH CENTRAL IOWA

CITY           SKY/WX    TMP DP  RH WIND       PRES   REMARKS
ALGONA *       MOCLDY    64  55  72 N9        30.03R
CLARION *      MOCLDY    64  61  88 N5        30.00R FOG
ESTHERVILLE    PTCLDY    60  52  74 N10       30.05R
FORT DODGE *   CLOUDY    66  57  72 NW3       30.02R
MASON CITY     CLOUDY    61  58  90 N6        30.01R FOG
FOREST CITY *    N/A     61  59  94 NW8       30.01R FOG
IOWA FALLS *     N/A     66  57  72 N8        29.99R HAZE
$$

IAZ007>011-017>019-026>030-037>042-050>054-066-070400-
   NORTHEAST IOWA

CITY           SKY/WX    TMP DP  RH WIND       PRES   REMARKS
CEDAR RAPIDS   CLOUDY    69  63  81 N13G22    29.91R
CHARLES CITY * CLEAR     63  61  94 N8        29.99R FOG
CLINTON *      CLOUDY    70  68  94 SW9       29.89R
DECORAH *        N/A    N/A N/A N/A MISG        N/A
DUBUQUE        CLOUDY    66  62  87 N14G25    29.90R
MONTICELLO *   CLOUDY    68  64  88 N12G17    29.91R
OELWEIN *      CLOUDY    64  59  82 N12       29.97R HAZE
WATERLOO       CLOUDY    65  57  75 N15       29.95R HAZE
$$

IAZ064-065-067-068-078-070400-
   EAST CENTRAL IOWA

CITY           SKY/WX    TMP DP  RH WIND       PRES   REMARKS
DAVENPORT      LGT RAIN  71  70  96 SW7       29.88R
IOWA CITY      CLOUDY    72  65  78 N16       29.90R
MT. PLEASANT * RAIN      73  70  88 CALM      29.89F
MUSCATINE *    CLOUDY    72  72 100 CALM      29.88S
QUAD CITIES    RAIN      72  69  90 SW15      29.88R FOG
$$

IAZ062-063-075>077-085>089-095>099-070400-
   SOUTHEAST IOWA

CITY           SKY/WX    TMP DP  RH WIND       PRES   REMARKS
BURLINGTON     LGT RAIN  72  71  97 NW6       29.89S
FAIRFIELD *    CLOUDY    72  72 100 CALM      29.90R
FORT MADISON * RAIN      72  70  94 NW3       29.90S
KEOKUK *       LGT RAIN  72  72 100 W14       29.90R
OSKALOOSA *    CLOUDY    69  63  80 N10       29.92R HAZE
CENTERVILLE *  LGT RAIN  72  70  94 N6        29.93R
OTTUMWA        CLOUDY    70  67  90 N17       29.90R
WASHINGTON *   RAIN      73  72  94 W3        29.91R
$$

ABBREVIATIONS USED IN REMARKS
   TC - TEMPERATURES IN CELSIUS
  WCI - WIND CHILL INDEX
   HX - HEAT INDEX
  VSB - VISIBILITY
$$




USA.gov is the U.S. government's official web portal to all federal, state and local government web resources and services.